When you browse on this site, cookies collect data to enhance your experience and personalize the content and advertising you see.
Visit our Privacy Policy to learn more. By continuing to use the site, you agree to this use of cookies and data.
  • In Hungary
  • List of Countries
  • For 7 days
  • Water Temperature
  • Satellite Maps
  • Weather Map
  • News
  • Weather Widgets
  • user-avatar
    Login

    Hourly Weather Mezyki

    Today, 16 January, Wednesday

    Time Temperature Precipitation Wind Pressure Humidity
    00:00 +4°C° 0.1 mm 6 mps 750 mmHg 88%
    01:00 +4°C° 0 mm 4 mps 750 mmHg 90%
    02:00 +4°C° 0.7 mm 4 mps 750 mmHg 91%
    03:00 +4°C° 0.7 mm 4 mps 750 mmHg 93%
    04:00 +4°C° 0.7 mm 4 mps 750 mmHg 95%
    05:00 +5°C° 0.2 mm 5 mps 751 mmHg 91%
    06:00 +4°C° 0.2 mm 6 mps 751 mmHg 88%
    07:00 +5°C° 0 mm 5 mps 751 mmHg 89%
    08:00 +5°C° 0 mm 5 mps 751 mmHg 87%
    09:00 +4°C° 0 mm 6 mps 751 mmHg 85%
    10:00 +4°C° 0 mm 6 mps 751 mmHg 83%
    11:00 +4°C° 0 mm 6 mps 751 mmHg 83%
    12:00 +4°C° 0 mm 6 mps 751 mmHg 83%
    13:00 +4°C° 0 mm 6 mps 751 mmHg 85%
    14:00 +4°C° 0 mm 6 mps 751 mmHg 85%
    15:00 +4°C° 0 mm 6 mps 750 mmHg 85%
    16:00 +4°C° 0 mm 6 mps 750 mmHg 85%
    17:00 +4°C° 0 mm 6 mps 750 mmHg 85%
    18:00 +4°C° 0 mm 6 mps 749 mmHg 84%
    19:00 +4°C° 0 mm 7 mps 749 mmHg 83%
    20:00 +4°C° 0.1 mm 7 mps 749 mmHg 82%
    21:00 +3°C° 0.1 mm 7 mps 748 mmHg 81%
    22:00 +3°C° 0.1 mm 7 mps 748 mmHg 81%
    23:00 +3°C° 0.2 mm 7 mps 747 mmHg 81%

    Tomorrow, 17 January, Thursday

    Time Temperature Precipitation Wind Pressure Humidity
    00:00 +2°C° 0.2 mm 7 mps 746 mmHg 81%
    01:00 +2°C° 0.2 mm 7 mps 746 mmHg 81%
    02:00 +2°C° 0.1 mm 7 mps 745 mmHg 80%
    03:00 +2°C° 0.1 mm 7 mps 745 mmHg 80%
    04:00 +2°C° 0.1 mm 7 mps 744 mmHg 80%
    05:00 +2°C° 0.4 mm 7 mps 744 mmHg 80%
    06:00 +2°C° 0.4 mm 7 mps 744 mmHg 81%
    07:00 +2°C° 0.4 mm 7 mps 744 mmHg 82%
    08:00 +2°C° 0.1 mm 7 mps 744 mmHg 81%
    09:00 +3°C° 0.1 mm 6 mps 745 mmHg 81%
    10:00 +3°C° 0.1 mm 6 mps 745 mmHg 81%
    11:00 +3°C° 0 mm 7 mps 745 mmHg 76%
    12:00 +4°C° 0 mm 7 mps 745 mmHg 71%
    13:00 +4°C° 0 mm 8 mps 745 mmHg 67%
    14:00 +4°C° 0 mm 7 mps 745 mmHg 67%
    15:00 +3°C° 0 mm 6 mps 745 mmHg 68%
    16:00 +3°C° 0 mm 6 mps 745 mmHg 69%
    17:00 +3°C° 0 mm 5 mps 745 mmHg 72%
    18:00 +3°C° 0 mm 4 mps 745 mmHg 74%
    19:00 +3°C° 0 mm 4 mps 745 mmHg 77%
    20:00 +1°C° 0.1 mm 4 mps 746 mmHg 76%
    21:00 +1°C° 0.1 mm 5 mps 746 mmHg 76%
    22:00 +1°C° 0.1 mm 5 mps 746 mmHg 75%
    23:00 -1°C° 0.1 mm 6 mps 747 mmHg 75%

    Day after tomorrow, 18 January, Friday

    Time Temperature Precipitation Wind Pressure Humidity
    00:00 -1°C° 0.1 mm 6 mps 748 mmHg 76%
    01:00 -1°C° 0.1 mm 7 mps 748 mmHg 76%
    02:00 -2°C° 0.2 mm 7 mps 749 mmHg 79%
    03:00 -2°C° 0.2 mm 7 mps 750 mmHg 81%
    04:00 -2°C° 0.2 mm 7 mps 750 mmHg 84%
    05:00 -3°C° 0.2 mm 6 mps 752 mmHg 82%
    06:00 -2°C° 0.2 mm 5 mps 753 mmHg 80%
    07:00 -2°C° 0.2 mm 5 mps 754 mmHg 78%
    08:00 -2°C° 0 mm 5 mps 755 mmHg 77%
    09:00 -2°C° 0 mm 4 mps 756 mmHg 76%
    10:00 -2°C° 0 mm 4 mps 757 mmHg 75%
    11:00 -1°C° 0 mm 4 mps 758 mmHg 73%
    12:00 -1°C° 0 mm 4 mps 758 mmHg 70%
    13:00 0°C° 0 mm 4 mps 759 mmHg 68%
    14:00 -1°C° 0 mm 4 mps 759 mmHg 70%
    15:00 0°C° 0 mm 3 mps 759 mmHg 73%
    16:00 -1°C° 0 mm 3 mps 760 mmHg 75%
    17:00 -1°C° 0 mm 3 mps 760 mmHg 75%
    18:00 -2°C° 0 mm 3 mps 760 mmHg 76%
    19:00 -3°C° 0 mm 4 mps 760 mmHg 76%
    20:00 -2°C° 0 mm 3 mps 761 mmHg 78%
    21:00 -2°C° 0 mm 3 mps 761 mmHg 81%
    22:00 -2°C° 0 mm 3 mps 761 mmHg 84%
    23:00 -2°C° 0 mm 3 mps 761 mmHg 86%

    19 January, Saturday

    Time Temperature Precipitation Wind Pressure Humidity
    00:00 -2°C° 0 mm 3 mps 761 mmHg 89%
    01:00 -2°C° 0 mm 2 mps 762 mmHg 91%
    02:00 -3°C° 0 mm 2 mps 762 mmHg 92%
    03:00 -3°C° 0 mm 2 mps 762 mmHg 92%
    04:00 -3°C° 0 mm 2 mps 762 mmHg 93%
    05:00 -3°C° 0 mm 2 mps 762 mmHg 93%
    06:00 -3°C° 0 mm 2 mps 762 mmHg 93%
    07:00 -3°C° 0 mm 2 mps 762 mmHg 94%
    08:00 -2°C° 0 mm 2 mps 762 mmHg 91%
    09:00 -2°C° 0 mm 2 mps 762 mmHg 89%
    10:00 -1°C° 0 mm 2 mps 762 mmHg 87%
    11:00 -1°C° 0 mm 2 mps 762 mmHg 84%
    12:00 +1°C° 0 mm 2 mps 762 mmHg 81%
    13:00 +3°C° 0 mm 1 mps 762 mmHg 77%
    14:00 +2°C° 0 mm 1 mps 762 mmHg 81%
    15:00 +1°C° 0 mm 1 mps 762 mmHg 84%
    16:00 +1°C° 0 mm 1 mps 761 mmHg 87%
    17:00 0°C° 0 mm 1 mps 761 mmHg 88%
    18:00 -1°C° 0 mm 0 mps 761 mmHg 89%
    19:00 -1°C° 0 mm 0 mps 761 mmHg 89%
    20:00 -1°C° 0 mm 0 mps 762 mmHg 90%
    21:00 0°C° 0 mm 1 mps 762 mmHg 90%
    22:00 0°C° 0 mm 1 mps 762 mmHg 90%
    23:00 -1°C° 0 mm 1 mps 762 mmHg 90%

    20 January, Sunday

    Time Temperature Precipitation Wind Pressure Humidity
    00:00 -1°C° 0 mm 1 mps 761 mmHg 91%
    01:00 -1°C° 0 mm 1 mps 761 mmHg 91%
    02:00 -1°C° 0 mm 1 mps 761 mmHg 91%
    03:00 -2°C° 0 mm 0 mps 761 mmHg 90%
    04:00 -2°C° 0 mm 0 mps 761 mmHg 90%
    05:00 -2°C° 0 mm 0 mps 761 mmHg 90%
    06:00 -2°C° 0 mm 0 mps 761 mmHg 90%
    07:00 -2°C° 0 mm 0 mps 761 mmHg 90%
    08:00 -2°C° 0 mm 0 mps 761 mmHg 87%
    09:00 -1°C° 0 mm 0 mps 761 mmHg 84%
    10:00 -1°C° 0 mm 0 mps 762 mmHg 82%
    11:00 0°C° 0 mm 0 mps 762 mmHg 79%
    12:00 0°C° 0 mm 0 mps 761 mmHg 76%
    13:00 +2°C° 0 mm 1 mps 761 mmHg 73%
    14:00 +1°C° 0 mm 1 mps 761 mmHg 78%
    15:00 +1°C° 0 mm 1 mps 761 mmHg 82%
    16:00 0°C° 0 mm 1 mps 762 mmHg 86%
    17:00 0°C° 0 mm 1 mps 762 mmHg 88%
    18:00 -3°C° 0 mm 2 mps 762 mmHg 89%
    19:00 -3°C° 0 mm 2 mps 762 mmHg 91%
    20:00 -3°C° 0 mm 2 mps 763 mmHg 91%
    21:00 -2°C° 0 mm 2 mps 763 mmHg 91%
    22:00 -2°C° 0 mm 3 mps 763 mmHg 91%
    23:00 -2°C° 0 mm 3 mps 764 mmHg 90%

    21 January, Monday

    Time Temperature Precipitation Wind Pressure Humidity
    00:00 -3°C° 0 mm 2 mps 764 mmHg 89%
    01:00 -3°C° 0 mm 2 mps 764 mmHg 88%
    02:00 -3°C° 0 mm 2 mps 765 mmHg 86%
    03:00 -4°C° 0 mm 2 mps 765 mmHg 83%
    04:00 -4°C° 0 mm 2 mps 765 mmHg 81%
    05:00 -4°C° 0 mm 2 mps 765 mmHg 82%
    06:00 -2°C° 0 mm 1 mps 766 mmHg 84%
    07:00 -2°C° 0 mm 1 mps 766 mmHg 85%
    08:00 -2°C° 0 mm 1 mps 767 mmHg 81%
    09:00 -1°C° 0 mm 1 mps 767 mmHg 78%
    10:00 -2°C° 0 mm 0 mps 768 mmHg 74%
    11:00 -1°C° 0 mm 0 mps 768 mmHg 69%
    12:00 0°C° 0 mm 1 mps 768 mmHg 64%
    13:00 +1°C° 0 mm 1 mps 768 mmHg 58%
    14:00 -1°C° 0 mm 0 mps 768 mmHg 62%
    15:00 -1°C° 0 mm 0 mps 768 mmHg 65%
    16:00 -2°C° 0 mm 0 mps 768 mmHg 69%
    17:00 -2°C° 0 mm 0 mps 768 mmHg 70%
    18:00 -2°C° 0 mm 1 mps 768 mmHg 72%
    19:00 -2°C° 0 mm 1 mps 768 mmHg 74%
    20:00 -2°C° 0 mm 1 mps 767 mmHg 75%
    21:00 -2°C° 0 mm 1 mps 767 mmHg 76%
    22:00 -5°C° 0 mm 2 mps 767 mmHg 77%
    23:00 -5°C° 0 mm 2 mps 767 mmHg 78%
    Show more